Location: Bishop's University Astronomical Observatory
(45.3661°N, 71.8475°W)
Time: 17:43:48
(UTC-04:00)

CZ-4C R/B - Visible Passes

Search period start: 29 June 2016 00:00
Search period end: 09 July 2016 00:00
Orbit: 741 x 1261 km, 63.4° (Epoch: 28 June)

Date Brightness Start Highest point End Pass type
(mag) Time Alt. Az. Time Alt. Az. Time Alt. Az.
29 Jun 3.2 00:17:13 10° NW 00:24:06 63° NE 00:29:59 18° SE visible
29 Jun 3.5 02:06:09 10° NW 02:12:32 35° WSW 02:15:06 28° SSW visible
29 Jun 5.0 21:13:51 10° NNW 21:17:54 17° N 21:22:15 10° NE visible
29 Jun 4.1 23:02:28 10° NNW 23:08:35 34° NE 23:15:20 10° E visible
30 Jun 2.8 00:50:45 10° NW 00:57:48 76° SW 01:01:44 32° SSE visible
30 Jun 4.3 02:41:04 10° WNW 02:45:36 18° WSW 02:46:52 17° WSW visible
30 Jun 4.7 21:47:38 10° NNW 21:52:35 21° NNE 21:57:58 10° ENE visible
30 Jun 3.3 23:35:52 10° NNW 23:42:39 55° NE 23:48:28 17° ESE visible
01 Jul 3.4 01:24:36 10° NW 01:31:13 42° WSW 01:33:37 33° SSW visible
01 Jul 4.2 22:21:07 10° NNW 22:27:01 31° NNE 22:33:32 10° E visible
02 Jul 2.8 00:09:21 10° NW 00:16:25 87° SW 00:20:27 31° SE visible
02 Jul 4.1 01:59:10 10° WNW 02:04:22 21° WSW 02:05:36 21° WSW visible
02 Jul 3.5 22:54:31 10° NNW 23:01:10 49° NE 23:07:22 15° ESE visible
03 Jul 3.2 00:43:06 10° NW 00:49:54 49° WSW 00:52:31 36° SSW visible
03 Jul 4.3 21:39:46 10° NNW 21:45:27 28° NNE 21:51:40 10° E visible
03 Jul 2.9 23:27:59 10° NW 23:35:00 82° NE 23:39:31 28° SE visible
04 Jul 4.0 01:17:24 10° WNW 01:23:07 26° WSW 01:24:40 24° SW visible
04 Jul 3.7 22:13:10 10° NNW 22:19:40 43° NE 22:26:34 11° ESE visible
05 Jul 3.1 00:01:38 10° NW 00:08:34 57° WSW 00:11:44 35° S visible
05 Jul 4.7 01:53:45 10° W 01:56:02 12° WSW 01:56:53 11° WSW visible
05 Jul 3.0 22:46:36 10° NW 22:53:34 72° NE 22:58:50 22° SE visible
06 Jul 3.9 00:35:45 10° NW 00:41:51 30° WSW 00:44:00 26° SW visible
06 Jul 3.8 21:31:50 10° NNW 21:38:09 38° NE 21:45:06 10° ESE visible
06 Jul 3.0 23:20:12 10° NW 23:27:12 67° WSW 23:31:10 31° SSE visible
07 Jul 4.6 01:11:08 10° WNW 01:14:51 15° WSW 01:16:20 14° WSW visible
07 Jul 3.1 22:05:14 10° NW 22:12:08 63° NE 22:18:23 16° SE visible
07 Jul 3.7 23:54:09 10° NW 00:00:34 36° WSW 00:03:34 27° SSW visible
08 Jul 2.9 22:38:47 10° NW 22:45:50 78° SW 22:50:50 24° SSE visible
